Dewpoint
9 10 10 10 11 11 11 12 11 11 11 11 11 10 10 11 11 10 10 8 6 5 6 6 5 4 1 -7 -8 -7 -8 -7 7 8 8 7 4 -3 -4 -4 -4 -3 -2
10 10 11 11 11 11 11 11 11 11 10 11 10 11 11 11 11 11 11 10 9 8 7 7 6 6 6 5 3 -2 -4 -4 -2 5 7 8 8 8 5 -2 -4 -4 -5
10 10 10 10 11 11 11 11 11 10 11 11 11 11 11 11 11 11 11 11 10 8 7 7 8 8 8 7 6 6 4 0 -3 -3 -2 4 7 8 8 8 5 -0 -3
10 10 10 11 10 10 10 10 10 10 10 10 10 10 10 10 10 10 10 10 10 9 8 7 7 7 7 8 8 9 8 7 6 4 2 1 5 7 8 8 7 7 7
9 9 9 8 6 6 7 6 8 7 6 8 9 8 9 9 9 10 10 10 9 8 8 8 8 8 7 7 7 8 9 10 10 8 7 5 3 5 6 6 6 5 5
5 3 2 1 -1 -2 -2 -1 2 3 4 5 5 5 7 7 7 8 8 9 10 10 10 10 8 9 8 8 8 8 8 8 9 10 10 9 8 7 6 5 5 6 6
-2 -3 -3 -4 -5 -5 -5 -5 -1 0 1 1 2 2 2 3 4 4 9 7 4 7 8 9 10 10 10 9 8 8 9 9 9 9 9 8 9 9 9 9 8 7 6
-4 -5 -5 -4 -4 -4 -5 -6 -5 -3 -1 -0 0 0 0 1 0 2 0 2 3 3 6 9 9 9 9 10 9 8 7 8 9 8 9 9 9 8 8 8 8 9 9
-4 -3 -3 -4 -6 -9 -12 -16 -12 -8 -3 -3 -2 -1 -0 0 1 -0 0 0 2 3 1 3 5 5 5 7 7 5 4 2 2 4 4 5 8 9 10 9 8 8 8
-2 -3 -5 -8 -13 -20 -27 -33 -33 -19 -5 -4 -4 -3 -2 -2 -0 0 -2 -1 -1 2 0 1 2 2 2 2 4 6 5 2 0 6 8 5 5 8 10 11 10 9 9
-4 -7 -11 -16 -24 -34 -37 -32 -27 -23 -9 -7 -6 -4 -3 -3 -3 -2 -1 -4 -4 -4 -4 -4 -2 1 1 0 4 6 6 7 7 8 8 9 9 7 8 10 11 10 11
-7 -8 -12 -22 -36 -34 -29 -26 -24 -23 -21 -20 -10 -6 -4 -4 -4 -6 -7 -6 -5 -6 -7 -5 -3 -1 0 1 3 5 5 5 5 5 6 7 8 9 8 8 6 8 9
-7 -12 -23 -35 -32 -29 -26 -24 -23 -23 -15 -17 -10 -6 -6 -8 -8 -9 -8 -5 -4 -4 -3 -3 -3 -2 -1 -1 -1 1 3 2 -0 1 5 5 5 4 5 5 5 4 7
-18 -30 -34 -32 -29 -27 -25 -25 -24 -20 -15 -13 -16 -10 -7 -9 -8 -7 -5 -4 -2 -2 -6 -7 -7 -5 -6 -6 -5 -3 -2 -3 -4 -1 -1 -2 2 3 3 4 5 3 2
-28 -33 -32 -30 -28 -26 -25 -23 -21 -19 -18 -13 -12 -10 -9 -9 -8 -7 -7 -8 -8 -4 -5 -6 -8 -11 -12 -11 -8 -3 -4 -6 -5 -5 -2 -11 -15 -7 -3 0 0 2 3
-30 -31 -30 -28 -27 -25 -22 -20 -19 -19 -16 -14 -12 -11 -9 -10 -9 -10 -11 -12 -10 -8 -7 -8 -9 -8 -8 -6 -5 -6 -7 -6 -4 -3 -4 -9 1 -1 -5 -4 -2 -1 2
-29 -29 -28 -27 -24 -21 -19 -19 -19 -18 -15 -13 -12 -12 -11 -10 -10 -11 -12 -11 -10 -10 -8 -8 -7 -8 -9 -9 -8 -8 -7 -7 -6 -7 -5 -1 -2 -10 -13 -13 -8 -2 1
-29 -28 -26 -23 -20 -18 -18 -19 -18 -16 -14 -13 -13 -12 -12 -12 -11 -11 -11 -11 -10 -9 -8 -7 -8 -8 -8 -8 -7 -7 -8 -8 -8 -7 -7 -6 -4 -7 -6 -10 -2 -3 -1
-27 -25 -22 -19 -18 -18 -18 -19 -17 -15 -14 -13 -12 -11 -11 -11 -11 -11 -11 -10 -9 -9 -8 -8 -7 -7 -7 -7 -7 -8 -7 -8 -8 -7 -6 -6 -4 -2 -3 -0 -2 -1 -0
-26 -22 -19 -17 -17 -18 -18 -19 -21 -15 -12 -12 -11 -10 -10 -10 -11 -10 -10 -10 -9 -8 -8 -8 -7 -7 -7 -9 -8 -8 -8 -7 -6 -6 -6 -3 -3 -2 -3 -3 -2 -3 -0
-21 -18 -17 -17 -17 -18 -19 -21 -22 -12 -11 -10 -10 -10 -10 -10 -9 -9 -9 -8 -8 -9 -7 -6 -7 -8 -9 -9 -8 -8 -8 -8 -8 -7 -4 -4 -4 -3 -5 -9 -11 -10 -4
-18 -17 -17 -17 -17 -18 -20 -22 -21 -10 -10 -9 -10 -10 -11 -11 -10 -9 -8 -7 -8 -7 -7 -6 -7 -8 -9 -9 -9 -9 -7 -6 -6 -7 -5 -5 -8 -6 -5 -5 -4 -2 -2
-17 -16 -17 -17 -18 -19 -20 -22 -14 -9 -9 -10 -10 -11 -11 -11 -9 -8 -9 -9 -8 -7 -8 -8 -8 -10 -9 -9 -9 -7 -7 -6 -6 -6 -6 -7 -6 -5 -6 -6 -3 -6 -1
-16 -16 -17 -17 -17 -16 -18 -11 -10 -9 -10 -10 -11 -11 -11 -9 -8 -10 -9 -8 -7 -9 -10 -11 -10 -9 -8 -8 -8 -8 -8 -8 -7 -7 -5 -5 -6 -6 -7 -5 -3 -2 -2
-16 -16 -17 -16 -16 -15 -13 -10 -9 -9 -11 -11 -11 -10 -8 -8 -9 -9 -8 -8 -9 -10 -12 -10 -9 -9 -10 -9 -8 -8 -8 -7 -7 -6 -7 -6 -7 -6 -5 -7 -7 -5 -2
-17 -17 -17 -16 -15 -14 -12 -9 -9 -10 -10 -10 -10 -9 -9 -10 -9 -7 -9 -10 -9 -12 -9 -10 -10 -11 -9 -9 -8 -9 -9 -8 -8 -7 -8 -6 -8 -7 -6 -5 -3 -4 -3
Wind_Speed
9 11 12 13 14 15 16 18 19 19 20 22 24 25 26 26 26 27 30 36 37 35 33 33 33 34 34 36 37 38 39 39 38 39 40 38 38 39 38 38 37 37 36
10 12 14 15 17 17 19 20 21 24 25 24 26 25 27 27 28 30 30 33 38 39 38 37 38 38 39 38 38 39 40 41 41 42 43 44 44 42 41 42 41 41 41
11 13 15 16 15 17 21 21 21 21 21 21 22 23 23 25 27 27 27 28 30 34 32 31 32 37 40 42 42 42 43 43 44 45 45 48 48 48 47 45 43 44 45
11 12 14 14 17 19 18 18 18 20 20 20 21 23 23 25 26 27 27 28 27 31 33 34 31 30 32 35 39 42 44 45 46 46 47 48 50 52 52 51 50 48 47
9 10 11 13 15 15 15 17 18 19 23 21 22 23 24 25 25 25 27 27 26 28 29 29 32 32 31 32 34 38 42 45 47 48 48 48 50 53 54 55 55 54 53
8 10 11 13 15 17 18 19 19 19 19 20 23 25 24 25 25 23 24 24 24 25 27 30 33 33 32 29 31 33 36 38 42 49 52 52 52 52 55 58 59 58 57
10 12 14 16 17 20 21 22 20 21 20 20 24 27 26 19 20 25 19 22 31 31 29 30 31 31 31 34 35 35 34 34 36 40 43 47 53 56 58 58 60 61 61
12 14 16 19 22 23 23 25 24 24 20 21 23 28 22 28 19 26 35 24 27 31 29 28 27 29 31 31 34 35 35 35 35 36 39 43 47 49 50 54 60 63 63
16 19 21 23 24 24 23 23 22 21 20 20 19 19 24 24 35 30 30 25 22 28 32 31 30 33 36 36 38 42 45 40 38 41 41 43 43 47 50 51 51 54 60
20 22 23 23 23 23 23 23 23 21 19 19 19 17 20 25 30 37 20 30 26 27 32 34 35 37 39 38 35 36 42 44 41 41 36 40 44 41 41 46 51 53 55
22 25 26 25 24 23 22 22 22 22 20 19 19 21 22 22 25 30 41 31 35 31 34 37 37 35 37 41 37 35 35 34 36 38 38 38 38 45 41 38 42 48 50
25 25 23 22 20 19 20 22 24 24 24 24 20 19 20 23 26 29 35 39 39 38 35 37 37 34 34 34 31 30 30 31 30 32 30 31 32 35 36 44 56 46 33
22 21 20 18 18 19 21 23 25 25 23 25 22 21 21 22 25 27 31 37 38 41 38 34 33 32 31 33 34 36 38 36 38 34 31 31 35 38 39 41 39 42 40
19 19 18 17 18 20 22 24 25 24 23 22 26 24 22 24 24 25 28 32 38 38 41 42 36 32 34 36 38 41 38 41 39 39 39 37 35 36 37 36 34 38 45
18 17 17 17 19 21 24 26 27 26 27 22 24 22 24 26 25 26 27 31 33 36 38 43 41 40 39 41 39 36 39 48 42 46 41 43 43 43 43 41 42 40 39
17 16 17 18 20 23 26 28 27 28 24 24 23 25 25 26 27 27 28 31 31 32 36 40 43 40 42 39 39 41 43 42 41 40 43 32 34 39 42 43 43 44 39
16 17 18 20 23 26 28 30 30 28 25 24 24 25 26 27 28 29 30 30 30 31 33 44 37 45 44 43 43 42 39 41 42 45 40 37 41 37 34 38 43 43 39
16 17 19 23 26 29 31 33 29 25 25 26 27 27 28 28 29 29 29 30 32 33 34 38 42 44 43 43 42 43 43 41 43 42 41 38 37 35 33 34 41 42 40
17 20 23 26 30 32 33 32 26 27 26 27 27 28 29 29 30 29 30 33 33 34 35 39 43 41 42 42 43 43 43 43 40 38 36 35 32 34 36 33 34 41 41
20 23 26 29 31 33 33 28 33 30 28 27 28 27 28 28 28 30 32 31 34 36 39 38 39 41 41 46 41 41 42 41 43 39 41 31 36 31 33 33 32 35 34
23 26 30 31 33 33 29 33 34 29 28 29 27 27 27 27 28 28 31 34 36 40 40 40 40 39 44 42 41 41 42 44 47 46 38 30 33 32 38 40 41 40 39
27 30 31 32 33 32 32 33 31 28 28 27 28 29 28 28 27 31 31 33 34 38 43 39 37 40 44 42 43 43 42 43 42 37 32 41 45 42 41 41 37 32 35
31 33 33 32 32 31 32 33 31 27 25 25 27 29 30 28 31 32 37 35 39 36 31 38 41 43 45 43 44 47 43 42 45 45 41 46 38 37 40 38 37 36 32
33 32 31 31 30 27 31 27 27 24 25 25 26 28 29 31 31 35 39 45 31 33 37 41 40 40 42 44 43 44 45 48 45 40 29 37 37 40 39 36 27 25 32
33 31 30 30 28 27 25 25 25 25 26 27 27 27 30 33 33 37 39 35 38 43 44 34 39 38 40 37 32 36 40 37 38 36 30 35 34 34 31 41 31 23 26
30 29 28 26 24 25 23 22 24 25 28 29 30 31 31 33 35 36 43 41 38 43 43 45 41 36 30 31 29 30 37 38 36 39 27 30 36 31 23 17 17 22 23
Wind_Direction
326 322 319 321 319 315 315 312 309 305 302 298 298 293 291 286 282 281 284 288 287 283 278 276 273 272 270 267 264 263 261 258 253 256 260 261 261 258 253 252 252 251 249
305 311 317 320 317 313 313 312 310 307 304 301 299 295 292 289 286 287 284 287 291 288 283 277 274 271 270 268 266 263 262 261 257 252 256 260 261 260 260 257 253 252 252
307 314 314 314 312 312 314 313 313 309 305 304 300 297 294 291 289 288 286 287 290 296 295 289 282 278 276 274 271 268 265 263 259 256 252 252 255 257 257 256 255 253 252
308 311 313 315 314 319 320 321 319 317 314 310 304 302 298 297 294 290 286 285 284 289 291 293 290 284 279 275 271 268 266 265 263 260 257 254 252 256 256 257 257 256 254
331 334 334 336 338 340 342 339 335 328 326 320 314 311 307 304 301 295 292 290 289 290 293 294 294 290 279 276 274 270 265 262 263 262 261 258 253 252 254 255 256 256 255
8 8 4 360 355 348 344 340 336 329 324 319 315 310 310 307 300 300 299 298 298 295 295 292 295 289 286 282 280 275 270 269 267 261 259 261 260 257 255 254 254 254 254
26 11 359 351 348 345 342 339 335 333 330 327 323 315 311 312 303 302 287 300 294 292 291 290 286 286 287 287 283 278 276 275 272 270 267 263 260 258 257 257 255 254 254
8 2 358 352 348 346 342 340 338 335 329 330 326 322 323 313 307 306 303 303 297 293 291 289 294 291 289 284 284 287 285 282 277 273 272 269 264 263 262 259 256 254 252
5 359 353 349 346 344 342 343 341 341 332 332 330 323 325 315 314 314 305 308 303 298 293 292 288 287 290 289 291 292 285 287 284 280 276 272 268 265 262 259 258 257 255
356 352 349 347 347 348 348 348 347 345 341 335 333 326 317 313 316 317 309 306 303 299 298 297 294 290 288 291 287 287 288 287 287 285 280 271 273 269 265 261 259 258 256
353 351 351 350 348 349 350 352 352 350 346 339 335 329 323 318 314 312 310 309 303 301 297 295 295 293 288 289 292 287 286 289 284 283 285 282 274 269 271 270 258 259 261
349 345 343 339 342 345 348 349 348 345 342 337 332 326 320 316 313 308 303 304 304 305 303 296 296 294 293 294 293 297 293 289 289 287 299 300 291 287 276 273 270 277 281
334 331 332 336 341 343 344 343 341 339 336 333 330 322 314 310 307 306 304 303 304 305 305 300 300 297 297 294 295 294 289 295 297 306 301 301 299 291 289 291 289 289 287
327 330 333 335 338 338 337 338 339 335 329 325 323 318 310 311 307 304 301 303 304 303 303 299 301 298 301 299 296 297 295 298 299 299 298 295 296 287 285 287 285 280 279
325 327 328 329 331 333 336 336 333 330 327 320 318 313 307 307 304 302 299 300 299 299 301 301 304 302 302 300 298 295 298 302 295 290 297 295 289 289 284 282 284 282 278
325 325 326 329 333 336 335 332 330 327 322 317 313 310 306 306 302 301 301 300 295 294 295 295 299 303 303 303 297 297 298 300 300 295 299 300 286 279 281 280 280 282 284
325 327 328 332 336 334 331 329 327 324 318 314 311 309 305 305 302 302 301 299 296 297 298 294 297 300 302 302 300 299 298 297 296 296 299 293 286 289 286 280 281 282 280
323 327 334 336 335 331 328 328 324 319 316 313 310 308 306 306 301 301 301 300 300 299 297 298 300 301 302 304 304 304 303 298 297 294 294 293 289 288 287 278 277 280 277
329 335 335 333 331 328 328 327 321 317 313 310 309 308 306 305 304 304 303 303 302 301 301 300 299 302 305 306 307 304 303 303 298 299 297 290 288 286 283 276 281 280 277
331 332 330 330 329 328 328 323 321 317 311 309 308 306 306 306 305 305 306 304 303 303 303 301 302 305 309 308 305 303 304 303 302 299 302 292 294 292 292 286 282 284 276
330 330 330 330 328 327 325 322 320 315 311 310 308 309 308 306 306 306 305 304 305 304 302 303 303 308 310 307 305 304 305 303 302 303 298 300 304 296 288 297 290 289 278
330 329 328 328 327 324 322 322 320 314 312 311 312 312 311 312 310 308 307 304 303 303 306 302 306 307 305 302 302 301 301 303 302 303 306 302 302 298 295 292 288 275 271
329 327 326 326 324 321 321 322 322 316 315 314 313 313 314 312 311 311 311 307 304 306 303 306 304 302 298 298 300 302 302 299 294 296 301 295 299 294 298 296 290 279 267
327 325 324 323 320 318 321 320 322 323 317 315 315 313 312 312 312 314 312 307 308 306 308 307 300 298 299 301 299 296 296 295 296 297 295 288 302 295 297 293 293 293 278
324 323 322 320 318 318 318 324 330 324 319 318 316 313 312 314 314 314 315 318 313 312 315 309 305 302 298 299 297 298 300 299 300 293 296 292 300 299 296 294 296 278 281
321 321 320 318 317 320 321 325 328 324 320 318 317 315 316 315 313 317 319 318 315 316 316 315 310 310 308 307 304 302 302 301 298 299 300 291 304 300 304 295 276 301 303
Height
1500 1499 1498 1496 1495 1494 1492 1490 1487 1485 1483 1481 1478 1476 1473 1471 1468 1464 1460 1456 1454 1453 1452 1449 1448 1446 1445 1444 1443 1443 1443 1444 1445 1445 1446 1447 1448 1448 1449 1450 1451 1451 1452
1497 1496 1496 1495 1493 1491 1489 1486 1484 1481 1479 1476 1473 1471 1467 1465 1461 1457 1454 1450 1446 1444 1443 1441 1439 1437 1436 1435 1434 1434 1434 1435 1436 1437 1437 1437 1438 1439 1440 1441 1442 1443 1444
1495 1494 1493 1492 1490 1488 1485 1483 1480 1478 1475 1472 1469 1466 1463 1460 1456 1452 1449 1444 1440 1435 1433 1432 1431 1429 1427 1426 1425 1424 1423 1422 1423 1423 1425 1426 1426 1427 1428 1430 1431 1432 1434
1494 1492 1491 1489 1487 1484 1482 1480 1477 1474 1471 1468 1464 1460 1457 1453 1449 1445 1442 1438 1435 1430 1426 1423 1422 1421 1419 1416 1415 1413 1412 1412 1412 1412 1413 1415 1415 1415 1416 1417 1419 1421 1423
1491 1490 1488 1486 1484 1483 1480 1477 1475 1471 1467 1464 1460 1455 1451 1447 1443 1440 1436 1432 1428 1424 1421 1418 1414 1412 1410 1409 1406 1404 1403 1402 1401 1401 1401 1402 1403 1403 1403 1404 1405 1407 1409
1490 1489 1487 1486 1484 1481 1478 1476 1473 1470 1467 1463 1457 1452 1447 1443 1439 1436 1432 1429 1425 1421 1417 1412 1408 1404 1401 1400 1398 1396 1393 1392 1391 1390 1389 1389 1389 1390 1389 1390 1391 1392 1394
1490 1489 1487 1485 1483 1480 1477 1473 1470 1465 1462 1458 1451 1446 1441 1437 1435 1431 1426 1423 1420 1417 1413 1409 1404 1399 1395 1391 1388 1387 1384 1382 1380 1379 1377 1377 1375 1375 1375 1376 1377 1378 1379
1491 1489 1487 1484 1481 1477 1474 1470 1466 1461 1459 1455 1451 1443 1434 1431 1430 1425 1422 1417 1413 1409 1405 1401 1396 1393 1389 1385 1381 1378 1375 1373 1370 1368 1366 1364 1363 1362 1362 1362 1363 1364 1366
1490 1488 1485 1481 1478 1475 1471 1467 1463 1459 1455 1453 1450 1447 1436 1429 1423 1422 1416 1412 1408 1403 1400 1396 1391 1388 1385 1380 1374 1369 1365 1363 1361 1358 1354 1351 1349 1347 1347 1348 1348 1349 1350
1489 1485 1482 1479 1475 1472 1468 1465 1461 1458 1454 1450 1447 1444 1440 1433 1424 1409 1411 1408 1405 1399 1395 1390 1385 1380 1376 1372 1368 1362 1358 1355 1350 1347 1343 1340 1338 1335 1334 1334 1334 1335 1336
1486 1483 1479 1475 1473 1469 1466 1463 1459 1456 1452 1448 1445 1440 1436 1430 1425 1417 1397 1400 1398 1395 1389 1384 1378 1373 1367 1363 1359 1352 1349 1343 1339 1336 1332 1330 1327 1324 1322 1319 1322 1321 1323
1483 1480 1477 1474 1471 1468 1464 1461 1457 1453 1449 1446 1442 1438 1433 1428 1421 1415 1404 1393 1388 1383 1380 1374 1369 1364 1360 1356 1351 1346 1338 1334 1331 1327 1323 1320 1317 1313 1309 1308 1305 1303 1294
1483 1480 1476 1472 1468 1465 1461 1458 1454 1450 1445 1441 1437 1433 1428 1423 1417 1411 1403 1390 1381 1374 1369 1367 1363 1358 1353 1348 1344 1338 1330 1327 1323 1320 1315 1312 1307 1303 1301 1295 1291 1292 1293
1480 1476 1472 1469 1465 1461 1458 1454 1450 1445 1441 1437 1432 1427 1423 1417 1412 1407 1399 1391 1377 1369 1362 1357 1356 1352 1347 1342 1335 1331 1324 1318 1314 1311 1306 1303 1298 1294 1291 1290 1288 1287 1281
1477 1473 1470 1466 1462 1458 1454 1449 1445 1441 1436 1432 1427 1422 1418 1412 1407 1401 1395 1389 1382 1367 1356 1347 1345 1344 1340 1334 1329 1322 1316 1310 1305 1299 1296 1292 1290 1286 1281 1277 1276 1276 1272
1473 1470 1466 1462 1458 1454 1449 1445 1439 1435 1430 1426 1421 1416 1411 1406 1400 1394 1388 1382 1376 1368 1356 1347 1339 1335 1329 1325 1320 1314 1309 1303 1296 1290 1285 1282 1280 1275 1271 1267 1264 1262 1260
1470 1466 1463 1458 1454 1449 1445 1439 1434 1429 1424 1420 1415 1409 1404 1398 1392 1387 1381 1375 1368 1363 1353 1340 1336 1327 1322 1316 1310 1306 1300 1294 1287 1281 1276 1272 1267 1264 1261 1257 1254 1253 1251
1466 1463 1458 1454 1450 1445 1439 1434 1428 1424 1419 1413 1407 1402 1396 1390 1385 1379 1373 1367 1361 1355 1348 1337 1329 1322 1315 1309 1303 1297 1291 1285 1279 1273 1267 1262 1257 1254 1250 1248 1245 1240 1243
1462 1458 1454 1450 1445 1440 1433 1428 1423 1417 1412 1406 1401 1394 1389 1383 1377 1371 1366 1360 1354 1347 1341 1333 1321 1316 1308 1301 1294 1288 1282 1277 1271 1264 1258 1253 1250 1246 1242 1239 1237 1235 1233
1458 1454 1450 1445 1440 1433 1427 1421 1416 1410 1404 1399 1393 1388 1382 1377 1370 1364 1359 1353 1347 1340 1333 1325 1316 1308 1302 1293 1288 1279 1270 1266 1260 1255 1249 1244 1240 1236 1232 1230 1227 1224 1222
1454 1449 1444 1439 1433 1427 1421 1415 1409 1402 1397 1391 1386 1380 1375 1370 1364 1359 1353 1347 1341 1333 1326 1318 1309 1302 1294 1287 1280 1272 1265 1257 1250 1246 1239 1234 1231 1227 1223 1220 1216 1214 1214
1449 1443 1438 1433 1426 1420 1415 1408 1402 1395 1390 1384 1378 1373 1368 1363 1357 1352 1346 1341 1336 1327 1319 1312 1303 1297 1287 1282 1274 1267 1259 1251 1241 1236 1233 1225 1222 1216 1212 1209 1206 1204 1204
1443 1437 1432 1426 1420 1413 1407 1400 1394 1388 1383 1379 1373 1367 1362 1357 1351 1345 1338 1333 1326 1320 1316 1309 1299 1291 1280 1274 1267 1258 1251 1245 1235 1229 1227 1215 1214 1207 1203 1199 1197 1192 1192
1437 1431 1425 1419 1413 1407 1400 1393 1387 1382 1378 1373 1368 1363 1357 1351 1345 1339 1331 1322 1316 1312 1307 1300 1291 1282 1274 1266 1261 1253 1244 1234 1227 1223 1222 1208 1207 1200 1196 1190 1186 1184 1181
1431 1425 1419 1412 1405 1399 1394 1387 1382 1378 1372 1367 1363 1358 1352 1345 1339 1333 1323 1315 1308 1301 1295 1289 1282 1274 1265 1258 1252 1245 1236 1229 1219 1215 1213 1207 1200 1193 1189 1182 1178 1175 1173
1425 1419 1412 1406 1400 1393 1388 1383 1380 1374 1367 1362 1357 1352 1346 1340 1333 1326 1319 1310 1299 1292 1284 1275 1269 1262 1256 1249 1244 1239 1231 1222 1215 1205 1206 1201 1194 1190 1181 1177 1171 1168 1165